Weather History for Key West NAF, FL

Change the Weather History Date:

Monday, March 25, 2013

  Actual Average Record
Temperature  
Mean Temperature 72 °F -  
Max Temperature 77 °F 79 °F 85 °F (1952)
Min Temperature 66 °F 69 °F 59 °F (1968)
Cooling Degree Days 6    
Growing Degree Days 22 (Base 50)    
Moisture  
Dew Point 67 °F    
Average Humidity 81    
Maximum Humidity 94    
Minimum Humidity 57    
Precipitation  
Precipitation 0.43 in - - ()
Sea Level Pressure  
Sea Level Pressure 29.86 in    
Wind  
Wind Speed 9 mph (NW)    
Max Wind Speed 25 mph    
Max Gust Speed 31 mph    
Visibility 9 miles    
Events Rain , Thunderstorm    
Averages and records for this station are not official NWS values.
T = Trace of Precipitation, MM = Missing Value Source: NWS Daily Summary

Daily Weather History Graph

Daily Weather History Graph

Search for Another Location

Airport:

Trip Planner

Search our weather history database for the weather conditions in past years. The results will help you decide how hot, cold, wet, or windy it might be!

Date:

Astronomy

Mar. 25, 2013 Rise Set
Actual Time 7:25 AM EDT 7:40 PM EDT
Civil Twilight 7:02 AM EDT 8:02 PM EDT
Nautical Twilight 6:36 AM EDT 8:29 PM EDT
Astronomical Twilight 6:09 AM EDT 8:56 PM EDT
Moon 6:15 PM EDT (3/25) 5:59 AM EDT (3/25)
Length of Visible Light 13h 00m
Length of Day
12h 14m
Waxing Gibbous, 96% of the Moon is Illuminated
Mar 25
Waxing Gibbous
Mar 27
Full
Apr 3
Last Quarter
Apr 10
New
Apr 18
First Quarter

Hourly Weather History & Observations

Time (EDT) Temp. Dew Point Humidity Pressure Visibility Wind Dir Wind Speed Gust Speed Precip Events Conditions
12:32 AM 77.0 °F 73.4 °F 89% 29.82 in 10.0 mi SSW 3.5 mph - N/A   Overcast
12:51 AM 77.0 °F 73.4 °F 89% 29.82 in 10.0 mi South 3.5 mph - N/A   Overcast
12:53 AM 77.0 °F 73.0 °F 88% 29.82 in 10.0 mi Calm Calm - N/A   Overcast
1:53 AM 77.0 °F 73.9 °F 90% 29.81 in 10.0 mi South 3.5 mph - 0.00 in   Overcast
2:53 AM 77.0 °F 73.0 °F 88% 29.80 in 10.0 mi South 4.6 mph - 0.00 in Rain Light Rain
3:16 AM 77.0 °F 73.4 °F 89% 29.79 in 10.0 mi South 4.6 mph - 0.00 in   Overcast
3:42 AM 77.0 °F 73.4 °F 89% 29.79 in 10.0 mi South 4.6 mph - 0.00 in   Overcast
3:53 AM 75.9 °F 73.0 °F 91% 29.78 in 10.0 mi South 4.6 mph - 0.00 in   Overcast
4:03 AM 75.2 °F 73.4 °F 94% 29.79 in 10.0 mi South 6.9 mph - N/A   Mostly Cloudy
4:53 AM 77.0 °F 73.0 °F 88% 29.78 in 10.0 mi South 8.1 mph - N/A   Mostly Cloudy
5:04 AM 77.0 °F 73.4 °F 89% 29.78 in 10.0 mi South 8.1 mph - N/A   Overcast
5:41 AM 77.0 °F 73.4 °F 89% 29.77 in 2.5 mi South 11.5 mph - N/A   Mostly Cloudy
5:51 AM 77.0 °F 73.4 °F 89% 29.79 in 3.0 mi SSW 11.5 mph - N/A   Mostly Cloudy
5:53 AM 77.0 °F 73.9 °F 90% 29.78 in 3.0 mi SSW 11.5 mph - N/A   Mostly Cloudy
6:01 AM 77.0 °F 73.4 °F 89% 29.78 in 5.0 mi South 10.4 mph - N/A   Scattered Clouds
6:25 AM 77.0 °F 73.4 °F 89% 29.79 in 10.0 mi SSW 8.1 mph - N/A Thunderstorm Thunderstorm
6:53 AM 77.0 °F 73.9 °F 90% 29.80 in 7.0 mi SW 9.2 mph - N/A Thunderstorm Thunderstorm
7:17 AM 73.4 °F 69.8 °F 88% 29.83 in 10.0 mi NNW 12.7 mph 26.5 mph 0.01 in Thunderstorm Thunderstorm
7:24 AM 71.6 °F 69.8 °F 94% 29.84 in 10.0 mi North 12.7 mph 21.9 mph 0.01 in Thunderstorm Thunderstorm
7:39 AM 71.6 °F 69.8 °F 94% 29.83 in 4.0 mi North 6.9 mph 18.4 mph 0.13 in Rain , Thunderstorm Light Thunderstorms and Rain
7:46 AM 71.6 °F 69.8 °F 94% 29.84 in 4.0 mi North 6.9 mph - 0.15 in Rain Rain
7:53 AM 72.0 °F 69.1 °F 91% 29.83 in 4.0 mi North 8.1 mph - 0.17 in Rain Rain
8:00 AM 71.6 °F 69.8 °F 94% 29.85 in 6.0 mi North 6.9 mph - 0.01 in Rain Light Rain
8:35 AM 71.6 °F 69.8 °F 94% 29.87 in 5.0 mi East 4.6 mph - 0.18 in Rain Light Rain
8:53 AM 71.1 °F 68.0 °F 90% 29.87 in 10.0 mi NE 4.6 mph - 0.18 in   Mostly Cloudy
9:53 AM 75.0 °F 70.0 °F 84% 29.88 in 10.0 mi North 8.1 mph - N/A   Mostly Cloudy
10:53 AM 75.0 °F 66.9 °F 76% 29.91 in 10.0 mi North 12.7 mph - N/A   Overcast
11:19 AM 73.4 °F 66.2 °F 78% 29.92 in 7.0 mi NNW 15.0 mph - 0.00 in Rain Light Rain
11:30 AM 75.2 °F 68.0 °F 78% 29.92 in 10.0 mi North 15.0 mph - 0.00 in   Mostly Cloudy
11:53 AM 77.0 °F 68.0 °F 74% 29.91 in 10.0 mi North 16.1 mph - 0.00 in   Mostly Cloudy
12:53 PM 75.9 °F 64.9 °F 69% 29.91 in 10.0 mi North 18.4 mph - N/A   Scattered Clouds
1:53 PM 73.0 °F 61.0 °F 66% 29.91 in 10.0 mi NNW 21.9 mph 26.5 mph N/A   Overcast
2:53 PM 71.1 °F 55.9 °F 59% 29.90 in 10.0 mi North 18.4 mph - N/A   Overcast
3:53 PM 70.0 °F 57.0 °F 63% 29.88 in 10.0 mi North 20.7 mph 26.5 mph N/A   Overcast
4:53 PM 69.1 °F 57.0 °F 65% 29.90 in 10.0 mi NNW 18.4 mph 25.3 mph N/A   Overcast
5:53 PM 71.1 °F 59.0 °F 66% 29.89 in 10.0 mi NNW 20.7 mph 26.5 mph 0.00 in   Mostly Cloudy
6:53 PM 70.0 °F 54.0 °F 57% 29.92 in 10.0 mi NNW 20.7 mph 29.9 mph N/A   Mostly Cloudy
7:53 PM 69.1 °F 53.1 °F 57% 29.93 in 10.0 mi NNW 25.3 mph 31.1 mph N/A   Mostly Cloudy
8:53 PM 69.1 °F 55.0 °F 61% 29.96 in 10.0 mi North 20.7 mph 25.3 mph N/A   Mostly Cloudy
9:53 PM 66.9 °F 55.9 °F 68% 29.97 in 10.0 mi North 21.9 mph 26.5 mph 0.08 in   Mostly Cloudy
10:53 PM 69.1 °F 57.0 °F 65% 30.03 in 10.0 mi NNW 15.0 mph 23.0 mph N/A   Overcast
11:53 PM 68.0 °F 55.0 °F 63% 30.04 in 10.0 mi North 20.7 mph 25.3 mph N/A   Overcast